Weather History for KBHK - January, 2014

Change the Weather History Date:

Sunday, January 5, 2014

  Actual Average Record
Temperature  
Mean Temperature -11 °F -  
Max Temperature -4 °F 48 °F 57 °F (2012)
Min Temperature -18 °F 33 °F -18 °F (2014)
Degree Days  
Heating Degree Days 76    
Moisture  
Dew Point -21 °F    
Average Humidity 66    
Maximum Humidity 75    
Minimum Humidity 58    
Precipitation  
Precipitation 0.00 in - - ()
Sea Level Pressure  
Sea Level Pressure 30.52 in    
Wind  
Wind Speed 23 mph (NW)    
Max Wind Speed 37 mph    
Max Gust Speed 51 mph    
Visibility 4 miles    
Events Snow    
Averages and records for this station are not official NWS values.
T = Trace of Precipitation, MM = Missing Value Source: NWS Daily Summary

Daily Weather History Graph

Daily Weather History Graph

Search for Another Location

Airport or City:

Trip Planner

Search our weather history database for the weather conditions in past years. The results will help you decide how hot, cold, wet, or windy it might be!

Date:

Astronomy

Jan. 05, 2014 Rise Set
Actual Time 7:40 AM MST 4:25 PM MST
Civil Twilight 7:05 AM MST 4:59 PM MST
Nautical Twilight 6:27 AM MST 5:37 PM MST
Astronomical Twilight 5:51 AM MST 6:14 PM MST
Moon 10:04 AM MST (1/5) 10:16 PM MST (1/5)
Length of Visible Light 9h 54m
Length of Day
8h 45m
Waxing Crescent, 25% of the Moon is Illuminated
Jan 5
Waxing Crescent
Jan 7
First Quarter
Jan 15
Full
Jan 23
Last Quarter
Jan 30
New

Hourly Weather History & Observations

Time (MST) Temp. Windchill Dew Point Humidity Pressure Visibility Wind Dir Wind Speed Gust Speed Precip Events Conditions
12:51 AM -4.0 °F -24.5 °F -11.0 °F 72% 30.45 in 10.0 mi NW 15.0 mph - N/A   Overcast
12:57 AM -4.0 °F -25.2 °F -11.0 °F 72% 30.24 in 10.0 mi WNW 16.1 mph - N/A   Mostly Cloudy
1:24 AM -4.0 °F -23.7 °F -11.0 °F 72% 30.24 in 7.0 mi WNW 13.8 mph - N/A   Mostly Cloudy
1:51 AM -4.0 °F -25.8 °F -11.0 °F 72% 30.47 in 4.0 mi WNW 17.3 mph - 0.00 in Snow Light Snow
2:03 AM -4.0 °F -25.8 °F -11.0 °F 72% 30.26 in 6.0 mi NW 17.3 mph - 0.00 in   Haze
2:08 AM -4.0 °F -25.2 °F -11.0 °F 72% 30.26 in 4.0 mi NW 16.1 mph - 0.00 in Snow Light Snow
2:22 AM -4.0 °F -30.0 °F -11.0 °F 72% 30.27 in 1.8 mi NW 26.5 mph 33.4 mph 0.00 in Snow Light Snow
2:45 AM -6.0 °F -31.2 °F -11.9 °F 75% 30.29 in 1.8 mi NW 23.0 mph - 0.00 in   Overcast
2:51 AM -6.0 °F -29.0 °F -11.9 °F 75% 30.51 in 1.8 mi NW 18.4 mph 32.2 mph 0.00 in   Overcast
2:57 AM -6.0 °F -30.7 °F -13.0 °F 72% 30.29 in 3.0 mi NW 21.9 mph 27.6 mph 0.00 in   Overcast
3:05 AM -6.0 °F -30.2 °F -14.1 °F 68% 30.28 in 6.0 mi NW 20.7 mph 28.8 mph 0.00 in   Haze
3:10 AM -6.0 °F -30.2 °F -15.0 °F 65% 30.28 in 6.0 mi NW 20.7 mph 32.2 mph 0.00 in   Haze
3:51 AM -7.1 °F -31.0 °F -16.1 °F 65% 30.51 in 10.0 mi WNW 19.6 mph - 0.00 in   Overcast
4:51 AM -7.1 °F -33.2 °F -16.1 °F 65% 30.52 in 10.0 mi WNW 24.2 mph 32.2 mph N/A   Overcast
5:44 AM -7.1 °F -37.7 °F -15.0 °F 68% 30.33 in 1.8 mi NW 36.8 mph 50.6 mph 0.00 in   Overcast
5:47 AM -7.6 °F -36.9 °F -14.8 °F 71% 30.33 in 0.8 mi NNW 32.2 mph 50.6 mph 0.00 in Snow Light Snow
5:51 AM -9.0 °F -38.1 °F -16.1 °F 71% 30.57 in 0.5 mi NNW 29.9 mph 50.6 mph 0.00 in Snow Snow
6:06 AM -9.9 °F -38.0 °F -16.1 °F 74% 30.36 in 0.8 mi NNW 26.5 mph 35.7 mph 0.00 in   Unknown
6:16 AM -9.9 °F -38.4 °F -16.1 °F 74% 30.37 in 1.0 mi North 27.6 mph 33.4 mph 0.00 in   Unknown
6:34 AM -9.9 °F -38.4 °F -17.0 °F 71% 30.38 in 0.8 mi NNW 27.6 mph 36.8 mph 0.00 in   Unknown
6:44 AM -11.0 °F -42.0 °F -18.0 °F 71% 30.38 in 0.5 mi NNW 33.4 mph 43.7 mph 0.00 in   Unknown
6:51 AM -11.9 °F -43.6 °F -20.0 °F 67% 30.63 in 0.8 mi NNW 34.5 mph 44.9 mph 0.00 in   Overcast
6:58 AM -11.9 °F -44.0 °F -20.0 °F 67% 30.39 in 1.2 mi NNW 35.7 mph 44.9 mph 0.00 in   Haze
7:15 AM -11.9 °F -41.6 °F -20.0 °F 67% 30.42 in 2.0 mi NNW 28.8 mph 35.7 mph 0.00 in   Haze
7:37 AM -14.1 °F -46.2 °F -22.0 °F 68% 30.43 in 1.5 mi NNW 33.4 mph 41.4 mph 0.00 in   Haze
7:42 AM -14.1 °F -46.2 °F -22.0 °F 68% 30.44 in 1.0 mi NNW 33.4 mph 41.4 mph 0.00 in   Haze
7:48 AM -14.8 °F -46.4 °F -22.0 °F 70% 30.44 in 0.8 mi NNW 31.1 mph 41.4 mph 0.00 in   Overcast
7:51 AM -15.0 °F -47.0 °F -22.0 °F 71% 30.70 in 0.5 mi NNW 32.2 mph 41.4 mph 0.00 in   Overcast
8:08 AM -15.0 °F -45.7 °F -24.0 °F 64% 30.45 in 1.5 mi NNW 28.8 mph 39.1 mph 0.00 in   Haze
8:14 AM -15.0 °F -46.2 °F -25.1 °F 61% 30.46 in 3.0 mi NNW 29.9 mph 38.0 mph 0.00 in   Haze
8:51 AM -16.1 °F -43.4 °F -25.1 °F 64% 30.75 in 8.0 mi NW 20.7 mph 29.9 mph 0.00 in   Mostly Cloudy
9:03 AM -16.1 °F -44.6 °F -26.0 °F 61% 30.50 in 9.0 mi NW 23.0 mph 32.2 mph N/A   Scattered Clouds
9:51 AM -16.1 °F -46.7 °F -26.0 °F 61% 30.78 in 2.5 mi NW 27.6 mph 36.8 mph N/A   Haze
10:06 AM -16.1 °F -47.2 °F -24.0 °F 67% 30.52 in 1.2 mi NW 28.8 mph 36.8 mph 0.00 in   Overcast
10:19 AM -17.0 °F -49.3 °F -25.1 °F 67% 30.52 in 0.8 mi NW 31.1 mph 41.4 mph 0.00 in   Overcast
10:32 AM -17.0 °F -46.4 °F -25.1 °F 67% 30.53 in 1.2 mi NW 24.2 mph 38.0 mph 0.00 in   Haze
10:51 AM -17.0 °F -48.4 °F -26.0 °F 64% 30.81 in 0.8 mi NW 28.8 mph 38.0 mph 0.00 in   Unknown
11:01 AM -17.0 °F -49.3 °F -27.0 °F 60% 30.54 in 1.2 mi WNW 31.1 mph 38.0 mph 0.00 in   Haze
11:13 AM -17.0 °F -46.4 °F -27.0 °F 60% 30.54 in 3.0 mi NW 24.2 mph 36.8 mph 0.00 in Snow Light Snow
11:28 AM -17.0 °F -47.4 °F -27.9 °F 58% 30.52 in 2.5 mi NW 26.5 mph 40.3 mph 0.00 in   Haze
11:51 AM -17.0 °F -48.4 °F -27.9 °F 58% 30.79 in 3.0 mi NW 28.8 mph 36.8 mph 0.00 in   Haze
12:11 PM -17.0 °F -50.2 °F -27.0 °F 60% 30.51 in 1.8 mi NW 33.4 mph 39.1 mph N/A   Haze
12:49 PM -16.6 °F -48.4 °F -27.4 °F 58% 30.51 in 2.0 mi WNW 29.9 mph 38.0 mph N/A   Haze
12:51 PM -18.0 °F -50.8 °F -27.0 °F 64% 30.79 in 1.8 mi WNW 31.1 mph 38.0 mph N/A   Haze
1:03 PM -18.0 °F -49.9 °F -27.0 °F 64% 30.50 in 2.5 mi WNW 28.8 mph 36.8 mph N/A   Haze
1:14 PM -18.0 °F -51.2 °F -27.0 °F 64% 30.49 in 1.5 mi WNW 32.2 mph 40.3 mph N/A   Haze
1:28 PM -18.0 °F -49.9 °F -27.9 °F 61% 30.50 in 2.5 mi WNW 28.8 mph 39.1 mph N/A   Haze
1:51 PM -17.0 °F -46.9 °F -27.0 °F 60% 30.77 in 2.5 mi WNW 25.3 mph 38.0 mph N/A   Haze
1:56 PM -17.0 °F -46.4 °F -27.0 °F 60% 30.51 in 4.0 mi WNW 24.2 mph 36.8 mph N/A   Haze
2:29 PM -17.0 °F -47.9 °F -27.0 °F 60% 30.51 in 5.0 mi WNW 27.6 mph 36.8 mph N/A   Haze
2:51 PM -17.0 °F -47.9 °F -27.0 °F 60% 30.79 in 6.0 mi WNW 27.6 mph 38.0 mph N/A   Haze
3:51 PM -17.0 °F -45.8 °F -27.0 °F 60% 30.80 in 8.0 mi WNW 23.0 mph 33.4 mph N/A   Clear
4:51 PM -17.0 °F -46.4 °F -27.0 °F 60% 30.79 in 10.0 mi WNW 24.2 mph 29.9 mph N/A   Clear
5:51 PM -18.0 °F -41.6 °F -27.0 °F 64% 30.78 in 10.0 mi WNW 13.8 mph - N/A   Clear
6:51 PM -18.0 °F -45.4 °F -27.0 °F 64% 30.76 in 10.0 mi WNW 19.6 mph - N/A   Clear
7:51 PM -18.9 °F -44.4 °F -27.0 °F 66% 30.75 in 10.0 mi West 16.1 mph - N/A   Clear
8:51 PM -18.9 °F -44.4 °F -26.0 °F 70% 30.71 in 10.0 mi WNW 16.1 mph - N/A   Clear
9:51 PM -18.9 °F -39.8 °F -26.0 °F 70% 30.72 in 10.0 mi West 10.4 mph - N/A   Clear
10:51 PM -18.9 °F -35.8 °F -26.0 °F 70% 30.71 in 10.0 mi NW 6.9 mph - N/A   Partly Cloudy
11:51 PM -18.9 °F -42.8 °F -26.0 °F 70% 30.69 in 10.0 mi West 13.8 mph - N/A   Overcast